Weather History for Lafayette, LA

Change the Weather History Date:

Friday, September 19, 2014

  Actual Average Record
Temperature  
Mean Temperature 80 °F 78 °F  
Max Temperature 88 °F 88 °F 99 °F (1912)
Min Temperature 72 °F 69 °F 46 °F (1901)
Degree Days  
Heating Degree Days 0 0  
Month to date heating degree days 0 0  
Since 1 July heating degree days 0 0  
Cooling Degree Days 15 13  
Month to date cooling degree days 298 298  
Year to date cooling degree days 2355 2559  
Growing Degree Days 30 (Base 50)    
Moisture  
Dew Point 72 °F    
Average Humidity 79    
Maximum Humidity 100    
Minimum Humidity 57    
Precipitation  
Precipitation 0.00 in 0.14 in 3.03 in (1932)
Month to date precipitation 5.21 3.09  
Year to date precipitation 51.30 43.71  
Sea Level Pressure  
Sea Level Pressure 29.94 in    
Wind  
Wind Speed 4 mph (ENE)    
Max Wind Speed 12 mph    
Max Gust Speed 16 mph    
Visibility 9 miles    
Events      
T = Trace of Precipitation, MM = Missing Value Source: NWS Daily Summary

Daily Weather History Graph

Daily Weather History Graph

Search for Another Location

Airport:

Trip Planner

Search our weather history database for the weather conditions in past years. The results will help you decide how hot, cold, wet, or windy it might be!

Date:

Astronomy

Sep. 19, 2014 Rise Set
Actual Time 6:54 AM CDT 7:08 PM CDT
Civil Twilight 6:30 AM CDT 7:32 PM CDT
Nautical Twilight 6:02 AM CDT 8:00 PM CDT
Astronomical Twilight 5:34 AM CDT 8:28 PM CDT
Moon 2:54 AM CDT (9/19) 4:24 PM CDT (9/19)
Length of Visible Light 13h 01m
Length of Day
12h 13m
Waning Crescent, 18% of the Moon is Illuminated
Sep 19
Waning Crescent
Sep 24
New
Oct 1
First Quarter
Oct 8
Full
Oct 15
Last Quarter

Hourly Weather History & Observations

Time (CDT) Temp. Heat Index Dew Point Humidity Pressure Visibility Wind Dir Wind Speed Gust Speed Precip Events Conditions
12:53 AM 73.0 °F - 72.0 °F 96% 29.92 in 10.0 mi Calm Calm - 0.04 in   Overcast
1:53 AM 73.0 °F - 72.0 °F 96% 29.92 in 10.0 mi East 4.6 mph - N/A   Overcast
2:53 AM 73.0 °F - 71.1 °F 93% 29.91 in 10.0 mi NE 3.5 mph - N/A   Overcast
3:53 AM 73.0 °F - 72.0 °F 96% 29.89 in 9.0 mi Calm Calm - N/A   Clear
4:53 AM 73.0 °F - 72.0 °F 96% 29.90 in 9.0 mi NE 3.5 mph - N/A   Scattered Clouds
5:53 AM 73.0 °F - 72.0 °F 96% 29.90 in 7.0 mi Calm Calm - N/A   Mostly Cloudy
6:53 AM 73.0 °F - 72.0 °F 96% 29.92 in 6.0 mi NE 6.9 mph - N/A   Mostly Cloudy
7:53 AM 73.4 °F - 73.4 °F 100% 29.94 in 6.0 mi ENE 3.5 mph - N/A   Scattered Clouds
8:09 AM 73.9 °F - 73.0 °F 97% 29.95 in 6.0 mi NE 4.6 mph - N/A   Overcast
8:53 AM 75.9 °F - 73.0 °F 91% 29.95 in 10.0 mi East 3.5 mph - N/A   Overcast
9:00 AM 75.9 °F - 73.9 °F 94% 29.95 in 10.0 mi ENE 6.9 mph - N/A   Mostly Cloudy
9:18 AM 75.9 °F - 73.9 °F 94% 29.96 in 10.0 mi ENE 5.8 mph - N/A   Mostly Cloudy
9:35 AM 75.9 °F - 73.0 °F 91% 29.96 in 10.0 mi Variable 5.8 mph - N/A   Overcast
9:46 AM 78.1 °F - 73.0 °F 84% 29.96 in 10.0 mi Variable 5.8 mph - N/A   Overcast
9:53 AM 78.1 °F - 73.0 °F 84% 29.96 in 10.0 mi Variable 6.9 mph - N/A   Mostly Cloudy
10:53 AM 80.1 °F 83.6 °F 71.1 °F 74% 29.98 in 10.0 mi Variable 4.6 mph - N/A   Mostly Cloudy
11:53 AM 82.9 °F 87.5 °F 71.1 °F 67% 29.97 in 10.0 mi Variable 4.6 mph - N/A   Partly Cloudy
12:53 PM 84.9 °F 90.1 °F 71.1 °F 63% 29.96 in 10.0 mi ENE 6.9 mph - N/A   Partly Cloudy
1:53 PM 86.0 °F 91.5 °F 71.1 °F 61% 29.94 in 10.0 mi East 8.1 mph - N/A   Scattered Clouds
2:53 PM 87.1 °F 92.8 °F 71.1 °F 59% 29.92 in 10.0 mi Variable 4.6 mph - N/A   Partly Cloudy
3:53 PM 86.0 °F 91.5 °F 71.1 °F 61% 29.91 in 10.0 mi ENE 5.8 mph - N/A   Mostly Cloudy
4:53 PM 86.0 °F 90.1 °F 69.1 °F 57% 29.90 in 10.0 mi Variable 6.9 mph - N/A   Clear
5:53 PM 84.9 °F 89.4 °F 70.0 °F 61% 29.91 in 10.0 mi East 5.8 mph - N/A   Clear
6:53 PM 82.0 °F 85.9 °F 70.0 °F 67% 29.92 in 10.0 mi Variable 3.5 mph - N/A   Clear
7:53 PM 78.1 °F - 71.1 °F 79% 29.93 in 10.0 mi Calm Calm - N/A   Clear
8:53 PM 75.2 °F - 71.6 °F 89% 29.95 in 10.0 mi East 3.5 mph - N/A   Clear
9:53 PM 75.0 °F - 72.0 °F 90% 29.96 in 10.0 mi Calm Calm - N/A   Clear
10:53 PM 73.9 °F - 72.0 °F 93% 29.96 in 10.0 mi Calm Calm - N/A   Clear
11:53 PM 73.0 °F - 72.0 °F 96% 29.95 in 10.0 mi ENE 3.5 mph - N/A   Clear